Dewpoint
38 29 26 28 30 29 27 26 22 20 22 28 29 30 39 45 47 46 48 50 53 54 54 54 54 56 57 54 57 58 56 55 56 56 54 52 52 52 51 52 51 49 46 44
30 29 29 31 32 29 27 26 24 23 26 25 25 26 28 42 44 46 48 51 52 55 55 56 56 56 54 54 57 57 56 56 56 56 52 52 51 51 51 52 49 48 46 44
30 28 31 32 29 27 27 26 26 24 25 22 23 20 26 36 47 49 50 51 51 53 54 56 55 54 54 54 57 57 56 56 56 55 52 50 51 50 49 47 47 48 46 44
31 32 28 30 28 27 24 28 29 28 25 18 21 13 19 28 42 47 49 49 50 49 54 54 55 53 53 53 56 57 57 56 56 54 52 50 50 49 48 47 47 47 45 45
27 30 29 29 27 29 26 31 31 29 26 25 24 21 21 25 30 40 47 48 48 47 51 53 54 53 52 54 56 57 57 56 56 54 53 52 51 51 50 49 46 47 44 43
27 33 30 28 32 30 31 31 29 31 27 22 24 22 22 22 25 34 41 46 47 45 47 50 52 51 51 54 55 56 56 56 56 55 53 52 51 51 50 47 46 45 43 42
27 28 31 34 29 31 29 26 22 23 24 21 27 25 24 25 27 26 31 40 46 45 43 47 48 49 52 54 55 56 56 56 56 56 54 53 52 52 49 46 46 43 41 39
24 24 29 32 29 26 29 26 24 17 21 20 26 24 24 28 32 33 31 30 41 43 41 44 47 50 53 55 55 56 56 56 56 56 56 54 53 50 48 47 46 44 40 38
25 23 34 34 35 30 31 26 28 27 29 25 24 24 21 29 31 35 33 36 38 38 39 43 46 50 54 55 55 56 56 56 56 56 56 54 53 49 47 47 44 41 39 39
26 21 33 34 34 33 29 30 25 26 20 20 19 19 20 23 28 31 34 36 36 41 42 45 49 52 55 56 56 56 57 56 56 56 56 54 52 49 47 44 42 40 41 40
29 23 25 33 29 25 29 27 26 25 24 20 19 20 22 22 30 30 32 36 38 40 45 47 52 54 55 56 56 56 57 57 56 55 54 51 48 46 44 43 42 42 41 41
31 26 25 27 31 31 28 28 27 25 21 25 24 21 23 22 25 32 33 36 42 46 47 50 51 54 55 56 56 57 57 57 55 52 49 47 45 46 46 43 43 42 43 43
32 26 22 21 25 32 30 31 31 30 27 24 21 22 24 25 24 26 31 33 38 46 48 50 51 53 54 55 55 55 55 54 50 49 48 47 46 45 43 42 42 44 44 42
34 30 23 20 21 26 30 30 31 29 26 25 24 23 24 25 25 26 26 27 33 41 47 48 50 51 52 52 52 52 50 49 49 48 47 47 45 44 41 42 44 43 39 38
31 25 28 25 25 25 24 23 27 26 26 24 24 25 25 26 27 24 26 26 29 37 44 46 47 48 50 50 49 49 48 47 47 46 46 46 45 43 43 43 39 39 38 35
32 26 26 28 28 27 25 25 26 26 26 25 25 24 27 27 30 31 33 36 39 42 43 42 45 45 49 49 48 47 45 45 46 45 45 43 42 41 38 37 38 37 35 33
30 30 26 23 26 26 24 26 25 25 25 26 24 26 26 29 31 32 33 36 38 40 41 45 45 46 47 46 45 44 45 45 43 41 40 39 38 37 36 34 33 32 35 39
31 29 26 24 24 17 26 30 28 27 25 24 23 25 28 31 35 36 36 37 34 33 33 35 39 40 40 40 39 37 38 38 36 35 35 34 33 33 34 36 38 39 39 39
35 30 26 24 24 23 25 25 25 24 22 26 25 31 33 35 35 35 33 33 32 32 31 30 31 32 32 33 33 33 33 33 32 31 32 33 35 36 37 38 39 40 37 33
33 32 28 24 20 17 25 27 26 25 21 29 31 33 34 33 26 32 32 31 30 30 30 29 30 30 31 31 31 31 31 31 31 33 34 38 40 40 40 39 36 34 31 30
30 29 24 22 22 26 31 28 27 20 23 31 32 33 34 31 31 32 31 30 30 29 29 30 30 30 31 31 31 32 33 34 35 39 41 41 38 35 34 31 29 29 29 28
32 30 25 25 21 23 30 27 24 27 34 34 34 36 36 33 32 31 31 29 29 28 29 29 29 30 31 32 34 35 36 37 35 34 33 32 31 30 30 29 29 29 28 27
31 33 31 31 31 33 34 30 34 34 34 35 36 38 34 32 32 31 30 29 28 27 27 28 28 29 30 30 30 30 31 31 30 29 28 28 28 28 28 28 28 28 27 26
33 35 32 32 35 37 39 38 38 38 38 39 39 35 34 33 32 31 31 30 29 27 27 28 29 29 28 28 28 28 29 29 27 27 27 27 27 28 28 27 27 27 25 26
35 36 35 34 37 38 38 36 37 36 37 36 35 34 33 33 31 31 30 29 28 28 29 30 27 27 28 30 31 30 29 29 28 28 28 27 27 27 26 27 27 27 27 27
36 35 34 32 38 36 36 36 37 36 35 35 34 33 33 32 31 29 29 29 29 29 27 26 27 29 29 27 27 28 27 26 25 25 26 26 25 25 25 25 24 26 27 27
Lifted_Index
0 0 1 0 0 -0 0 0 0 0 -0 -0 -0 0 -0 -2 -3 -3 -3 -3 -3 -3 -3 -2 -2 -1 -1 -1 -1 -1 -1 -1 0 1 0 -0 -1 -2 -2 -1 -0 1 2 2
1 1 1 0 0 -0 -0 0 0 -0 -0 -0 -0 -0 -0 -1 -2 -3 -3 -3 -3 -3 -3 -3 -2 -2 -1 -1 -1 -2 -2 -1 -0 0 0 -1 -1 -2 -1 -1 -0 1 2 3
1 1 1 1 0 -0 -0 0 0 0 0 0 0 0 0 -1 -2 -3 -3 -3 -3 -4 -4 -4 -3 -3 -2 -2 -2 -2 -2 -2 -1 -0 -0 -1 -1 -1 -1 -1 0 2 3 3
2 2 1 1 1 0 0 0 1 1 0 0 1 1 1 1 -1 -2 -3 -3 -3 -4 -4 -4 -4 -4 -3 -2 -2 -2 -2 -2 -1 -0 -0 -1 -1 -1 -1 -0 0 2 3 3
2 2 2 2 1 1 1 1 1 1 1 1 1 1 1 1 1 -1 -2 -3 -3 -3 -4 -4 -5 -4 -4 -3 -2 -2 -2 -1 -1 -0 -1 -1 -1 -1 -1 -0 0 1 3 4
2 2 2 2 2 2 1 1 1 1 1 1 1 1 1 1 1 1 -0 -1 -2 -3 -3 -4 -4 -4 -4 -3 -3 -2 -2 -1 -1 -1 -1 -1 -1 -1 -1 -0 1 1 3 4
2 2 2 2 1 1 1 1 1 1 1 1 1 1 1 1 1 1 1 0 -1 -2 -3 -3 -3 -3 -3 -3 -2 -2 -2 -1 -1 -1 -1 -1 -1 -1 -1 0 1 1 2 3
2 2 2 2 1 1 1 1 1 1 1 1 1 2 1 1 1 1 1 1 0 -1 -2 -2 -2 -2 -2 -2 -2 -2 -1 -1 -1 -1 -1 -1 -1 -1 -1 0 1 2 2 3
2 2 1 1 1 1 1 1 1 1 1 1 1 2 2 1 0 0 1 1 1 0 -0 -1 -2 -1 -1 -1 -1 -1 -1 -1 -1 -1 -1 -2 -1 -1 -0 0 1 2 2 2
2 2 1 1 1 1 1 1 1 1 1 1 1 1 1 1 1 1 1 1 1 1 1 -0 -1 -1 -1 -1 -1 -1 -1 -1 -1 -1 -2 -2 -1 -1 -1 0 1 1 2 2
2 2 2 1 1 1 1 1 1 1 1 1 1 1 1 1 1 1 1 1 1 1 0 -0 -1 -1 -1 -1 -1 -1 -1 -1 -2 -2 -2 -2 -2 -1 -1 -0 1 1 2 2
2 2 2 2 1 1 1 1 1 1 1 1 1 1 1 1 1 1 1 1 1 0 -0 -1 -1 -1 -1 -2 -2 -2 -2 -2 -2 -3 -2 -2 -2 -1 -1 -0 0 1 2 3
2 2 2 2 2 1 1 1 1 1 1 1 1 1 1 1 1 1 1 1 0 -0 -1 -1 -2 -2 -2 -2 -2 -2 -2 -3 -3 -2 -2 -2 -1 -1 -0 0 1 2 4 4
2 2 2 2 1 1 1 0 0 1 1 1 1 1 1 1 1 1 1 1 1 0 -1 -2 -2 -2 -3 -3 -3 -3 -2 -2 -2 -2 -1 -1 -1 -0 1 2 3 4 5 6
1 1 1 1 1 0 0 0 0 0 1 1 1 1 1 1 1 1 1 1 1 1 -0 -1 -2 -2 -2 -2 -2 -2 -2 -2 -1 -1 -1 -0 0 1 2 3 5 6 7 8
1 1 1 1 1 0 0 0 0 0 1 1 1 1 1 1 1 1 1 1 1 1 1 0 -1 -1 -1 -1 -1 -1 -1 -1 -0 -0 0 1 1 3 4 5 6 7 9 9
0 0 0 0 0 0 0 1 1 1 1 1 1 2 2 2 2 2 2 2 2 2 2 1 1 1 0 0 0 0 0 0 1 1 1 2 3 4 6 7 8 9 9 9
-0 -0 -1 -0 -0 1 1 1 1 1 2 2 2 3 3 3 3 3 3 3 3 3 3 3 2 2 2 2 2 2 2 2 2 2 2 4 5 6 8 9 10 10 9 9
-0 -1 -1 -1 0 1 2 2 2 2 3 3 3 3 3 3 3 3 3 3 4 4 3 3 3 3 3 3 3 3 2 2 2 3 4 6 7 8 9 10 9 9 9 9
-0 -0 -0 -0 0 1 2 2 2 2 3 3 3 3 3 3 3 3 3 4 4 4 4 4 4 4 4 4 4 3 3 3 4 5 7 8 9 9 9 9 9 10 10 11
-0 -0 -0 -0 0 1 1 1 2 2 2 2 3 3 3 3 3 3 4 3 4 4 4 4 5 5 5 5 5 5 5 6 7 8 9 10 10 10 10 11 11 12 12 13
-0 -0 -0 -0 0 1 1 1 1 1 2 2 3 3 3 3 4 4 4 4 4 4 5 5 5 5 6 7 8 7 7 8 9 9 10 10 11 12 12 13 14 14 13 13
0 -0 -0 -0 0 0 0 0 1 1 2 2 3 3 4 3 4 4 4 4 5 5 5 5 6 6 8 9 10 9 9 10 10 11 11 12 13 14 14 14 14 14 13 13
-0 -0 -0 -0 -0 -0 -0 -0 0 1 2 2 3 3 3 3 4 4 5 5 5 5 5 6 7 8 9 10 11 11 11 12 12 13 13 14 15 15 15 15 14 14 13 13
-0 -0 -0 -0 -0 -0 -0 0 1 2 2 2 3 3 3 4 4 4 5 5 5 6 6 7 8 9 10 11 12 13 13 14 14 14 15 15 15 15 15 14 14 14 14 14
-0 0 0 0 -0 -0 -0 0 1 2 2 2 3 3 3 4 4 4 5 5 5 6 7 8 9 9 10 11 12 14 15 15 15 15 15 15 15 15 15 15 14 15 15 15